period_start,C,m1,H,J0,J1,J2,J3,J4,J5,JA,JB,JC,JD,JJ,JK,JN,#
2016-06-17 00:03:34,0.02,0.31,0.00,17.02,22.84,26.68,14.86,46.94,1014.24,2056.26,3479.92,3083.06,3497.02,599.88,606.86,52.93,0000 0000 0000 0000 000000
2016-06-17 00:08:35,0.01,0.31,0.00,17.04,22.83,26.66,15.01,46.94,1014.44,2056.33,3479.78,3083.07,3497.03,600.34,607.26,52.98,0000 0000 0000 0000 000000
2016-06-17 00:13:37,-0.00,0.31,0.00,17.06,22.82,26.71,14.90,46.94,1014.34,2056.28,3479.21,3083.01,3497.00,599.42,606.26,53.03,0000 0000 0000 0000 000000
2016-06-17 00:18:38,0.04,0.32,0.00,17.05,22.82,26.70,14.86,46.84,1014.38,2056.55,3479.02,3083.00,3497.00,600.15,607.02,53.08,0000 0000 0000 0000 000000
2016-06-17 00:23:39,-0.01,0.31,0.00,17.05,22.82,26.68,14.88,46.83,1014.64,2056.52,3479.01,3083.00,3496.98,599.88,607.01,53.13,0000 0000 0000 0000 000000
2016-06-17 00:28:40,0.02,0.32,0.00,17.08,22.82,26.68,14.94,46.92,1014.66,2056.70,3478.99,3083.00,3496.92,600.48,607.51,53.18,0000 0000 0000 0000 000000
2016-06-17 00:33:42,0.02,0.32,0.00,17.06,22.82,26.60,14.90,47.02,1014.65,2056.83,3478.90,3082.93,3496.36,600.10,607.24,53.23,0000 0000 0000 0000 000000
2016-06-17 00:38:43,0.00,0.32,0.00,17.07,22.82,26.55,14.92,47.04,1014.66,2056.74,3478.60,3082.69,3496.05,599.83,606.85,53.28,0000 0000 0000 0000 000000
2016-06-17 00:43:45,0.02,0.32,0.00,17.09,22.82,26.62,14.92,46.98,1014.62,2056.87,3478.36,3082.63,3496.05,599.49,606.56,53.33,0000 0000 0000 0000 000000
2016-06-17 00:48:46,0.01,0.32,0.00,17.09,22.82,26.63,14.94,47.09,1014.24,2056.95,3478.08,3082.50,3496.04,600.00,606.69,53.38,0000 0000 0000 0000 000000
2016-06-17 00:53:48,0.00,0.32,0.00,17.07,22.82,26.65,14.90,47.03,1014.18,2056.97,3478.02,3082.32,3496.01,600.16,606.99,53.43,0000 0000 0000 0000 000000
2016-06-17 00:58:49,0.00,0.32,0.00,17.07,22.82,26.64,14.99,47.27,1014.18,2056.98,3478.00,3082.08,3496.00,600.50,607.17,53.48,0000 0000 0000 0000 000000
2016-06-17 01:03:50,-0.00,0.32,0.00,17.09,22.82,26.62,14.95,47.02,1014.18,2056.95,3477.99,3082.02,3496.00,599.96,606.73,53.54,0000 0000 0000 0000 000000
2016-06-17 01:08:51,-0.00,0.32,0.00,17.09,22.82,26.67,14.90,47.08,1014.18,2056.95,3477.88,3082.01,3495.99,600.32,606.92,53.59,0000 0000 0000 0000 000000
2016-06-17 01:13:53,0.01,0.32,0.00,17.11,22.82,26.68,14.93,47.18,1014.19,2056.95,3477.34,3082.00,3495.94,599.93,606.62,53.64,0000 0000 0000 0000 000000
2016-06-17 01:18:54,0.01,0.32,0.00,17.05,22.82,26.69,14.90,47.00,1014.27,2056.96,3477.05,3081.99,3495.69,599.67,606.64,53.69,0000 0000 0000 0000 000000
2016-06-17 01:23:55,0.00,0.32,0.00,17.08,22.82,26.60,14.94,47.09,1014.62,2056.98,3477.01,3081.98,3495.50,600.32,607.40,53.74,0000 0000 0000 0000 000000
2016-06-17 01:28:56,0.00,0.32,0.00,17.05,22.82,26.64,14.84,47.03,1014.66,2056.98,3477.00,3081.97,3495.28,599.75,606.82,53.79,0000 0000 0000 0000 000000
2016-06-17 01:33:57,0.00,0.32,0.00,17.07,22.82,26.62,14.89,46.88,1014.66,2056.97,3476.99,3081.92,3495.04,599.96,607.01,53.84,0000 0000 0000 0000 000000
2016-06-17 01:38:59,0.01,0.32,0.00,17.09,22.82,26.59,14.95,47.02,1014.66,2056.97,3476.81,3081.54,3495.00,599.95,606.86,53.89,0000 0000 0000 0000 000000
2016-06-17 01:44:00,0.01,0.32,0.00,17.10,22.82,26.64,14.94,47.11,1014.66,2056.97,3476.24,3081.12,3495.00,600.54,607.29,53.94,0000 0000 0000 0000 000000
2016-06-17 01:49:01,0.00,0.32,0.00,17.13,22.82,26.59,14.88,47.03,1014.66,2056.97,3476.02,3081.01,3494.99,599.49,606.42,53.99,0000 0000 0000 0000 000000
2016-06-17 01:54:02,-0.00,0.32,0.00,17.08,22.82,26.65,14.93,47.10,1014.66,2056.97,3476.01,3081.01,3494.98,600.11,607.12,54.04,0000 0000 0000 0000 000000
2016-06-17 01:59:03,0.00,0.32,0.00,17.10,22.82,26.66,14.89,47.02,1014.66,2056.98,3476.00,3081.00,3494.97,599.78,606.77,54.09,0000 0000 0000 0000 000000
2016-06-17 02:04:05,-0.00,0.32,0.00,17.10,22.82,26.68,14.88,46.99,1014.66,2056.97,3476.00,3081.00,3494.92,599.92,606.90,54.14,0000 0000 0000 0000 000000
2016-06-17 02:09:06,0.00,0.32,0.00,17.11,22.82,26.66,14.88,47.02,1014.66,2056.98,3475.98,3081.00,3494.61,599.91,606.81,54.19,0000 0000 0000 0000 000000
2016-06-17 02:14:07,0.00,0.32,0.00,17.13,22.81,26.67,14.91,47.10,1014.66,2056.98,3475.92,3080.99,3494.43,600.37,607.23,54.24,0000 0000 0000 0000 000000
2016-06-17 02:19:09,0.01,0.32,0.00,17.12,22.80,26.64,14.87,47.03,1014.66,2056.98,3475.50,3080.99,3494.13,599.96,606.84,54.29,0000 0000 0000 0000 000000
2016-06-17 02:24:10,0.01,0.32,0.00,17.12,22.80,26.64,14.97,47.03,1014.66,2056.98,3475.07,3080.98,3494.04,600.16,607.09,54.34,0000 0000 0000 0000 000000
2016-06-17 02:29:11,0.00,0.32,0.00,17.13,22.80,26.68,14.85,46.92,1014.66,2056.98,3475.00,3080.95,3494.01,599.68,606.66,54.39,0000 0000 0000 0000 000000
2016-06-17 02:34:12,0.02,0.33,0.00,17.13,22.79,26.62,14.88,46.93,1014.66,2056.99,3474.96,3080.38,3493.99,600.05,606.94,54.44,0000 0000 0000 0000 000000
2016-06-17 02:39:13,0.00,0.33,0.00,17.12,22.79,26.67,14.88,47.00,1014.67,2056.99,3474.73,3080.05,3493.95,599.91,606.86,54.49,0000 0000 0000 0000 000000
2016-06-17 02:44:15,0.01,0.33,0.00,17.09,22.79,26.65,14.89,46.98,1014.76,2056.99,3474.10,3080.01,3493.64,599.95,606.95,54.55,0000 0000 0000 0000 000000
2016-06-17 02:49:16,0.00,0.33,0.00,17.11,22.79,26.65,14.88,46.93,1014.75,2056.99,3474.01,3080.00,3493.23,599.58,606.52,54.60,0000 0000 0000 0000 000000
2016-06-17 02:54:17,0.00,0.33,0.00,17.09,22.78,26.60,14.90,47.02,1014.74,2056.99,3474.00,3080.00,3493.10,599.99,607.01,54.65,0000 0000 0000 0000 000000
2016-06-17 02:59:18,0.00,0.33,0.00,17.08,22.77,26.58,14.95,46.98,1014.74,2056.99,3474.00,3080.00,3493.04,600.00,607.13,54.70,0000 0000 0000 0000 000000
2016-06-17 03:04:19,0.00,0.33,0.00,17.10,22.77,26.60,14.88,46.88,1014.67,2056.99,3473.96,3079.99,3493.01,600.01,606.84,54.75,0000 0000 0000 0000 000000
2016-06-17 03:09:21,0.00,0.33,0.00,17.09,22.77,26.55,14.96,47.15,1014.66,2056.99,3473.96,3079.98,3493.00,600.26,607.27,54.80,0000 0000 0000 0000 000000
2016-06-17 03:14:22,0.00,0.33,0.00,17.08,22.77,26.62,14.87,47.02,1014.66,2057.00,3473.73,3079.98,3493.00,599.69,606.80,54.85,0000 0000 0000 0000 000000
2016-06-17 03:19:24,0.00,0.33,0.00,17.05,22.75,26.62,14.93,47.02,1014.60,2057.00,3473.27,3079.97,3493.00,600.30,607.42,54.90,0000 0000 0000 0000 000000
2016-06-17 03:24:25,0.01,0.33,0.00,17.04,22.75,26.59,14.94,47.23,1014.40,2057.00,3473.04,3079.80,3492.99,599.80,606.83,54.95,0000 0000 0000 0000 000000
2016-06-17 03:29:26,0.00,0.33,0.00,17.02,22.74,26.60,14.99,47.21,1014.31,2057.01,3473.00,3079.68,3492.97,600.21,607.16,55.00,0000 0000 0000 0000 000000
2016-06-17 03:34:28,0.00,0.33,0.00,16.96,22.74,26.61,14.90,47.12,1014.24,2057.03,3473.00,3079.61,3492.98,599.72,606.86,55.05,0000 0000 0000 0000 000000
2016-06-17 03:39:29,0.00,0.33,0.00,16.98,22.73,26.60,14.95,47.11,1014.22,2057.04,3472.98,3079.37,3492.97,600.13,607.17,55.10,0000 0000 0000 0000 000000
2016-06-17 03:44:30,0.02,0.33,0.00,16.98,22.72,26.55,14.88,47.17,1014.22,2057.04,3472.77,3079.09,3492.71,600.22,607.20,55.15,0000 0000 0000 0000 000000
2016-06-17 03:49:32,0.02,0.33,0.00,16.95,22.72,26.59,14.90,47.00,1014.18,2057.06,3472.05,3079.01,3492.13,600.00,606.99,55.20,0000 0000 0000 0000 000000
2016-06-17 03:54:33,-0.00,0.33,0.00,16.97,22.72,26.53,14.92,47.07,1014.18,2057.07,3471.99,3079.00,3492.01,600.08,607.06,55.25,0000 0000 0000 0000 000000
2016-06-17 03:59:34,0.01,0.33,0.00,16.92,22.70,26.45,14.88,46.93,1014.18,2057.06,3471.32,3078.97,3491.99,599.98,607.04,55.30,0000 0000 0000 0000 000000
2016-06-17 04:04:36,0.00,0.33,0.00,16.89,22.69,26.52,14.97,47.18,1014.19,2057.04,3471.01,3078.93,3491.98,600.30,607.33,55.35,0000 0000 0000 0000 000000
2016-06-17 04:09:37,0.02,0.33,0.00,16.90,22.69,26.58,14.96,46.98,1014.20,2057.05,3470.99,3078.46,3491.81,600.16,607.22,55.40,0000 0000 0000 0000 000000
2016-06-17 04:14:38,0.00,0.33,0.00,16.92,22.69,26.60,14.89,47.13,1014.31,2057.08,3470.98,3078.21,3491.57,600.31,607.46,55.45,0000 0000 0000 0000 000000
2016-06-17 04:19:39,0.01,0.33,0.00,16.90,22.68,26.57,14.94,47.18,1014.63,2057.05,3470.56,3078.03,3491.10,600.17,607.46,55.51,0000 0000 0000 0000 000000
2016-06-17 04:24:40,0.01,0.34,0.00,16.93,22.67,26.58,14.99,47.11,1014.66,2057.08,3470.05,3078.00,3491.01,599.91,607.35,55.56,0000 0000 0000 0000 000000
2016-06-17 04:29:41,0.00,0.34,0.00,16.92,22.67,26.54,14.93,47.04,1014.66,2057.12,3470.01,3078.00,3491.00,599.83,607.19,55.61,0000 0000 0000 0000 000000
2016-06-17 04:34:43,-0.00,0.34,0.00,16.88,22.67,26.52,15.03,47.13,1014.55,2057.12,3469.99,3077.99,3490.98,600.37,607.57,55.66,0000 0000 0000 0000 000000
2016-06-17 04:39:44,0.01,0.34,0.00,16.87,22.65,26.53,14.92,47.17,1014.38,2057.24,3469.74,3077.97,3490.98,599.83,607.08,55.71,0000 0000 0000 0000 000000
2016-06-17 04:44:45,0.03,0.34,0.00,16.92,22.65,26.57,14.89,47.12,1014.41,2057.45,3469.39,3077.94,3490.89,600.23,607.32,55.76,0000 0000 0000 0000 000000
2016-06-17 04:49:46,0.05,0.34,0.00,16.89,22.64,26.50,15.02,47.17,1014.50,2057.68,3469.02,3077.74,3490.50,600.03,607.33,55.81,0000 0000 0000 0000 000000
2016-06-17 04:54:48,0.01,0.34,0.00,16.86,22.64,26.53,14.98,47.02,1014.60,2057.79,3469.00,3077.16,3490.05,600.19,607.69,55.86,0000 0000 0000 0000 000000
2016-06-17 04:59:49,-0.00,0.34,0.00,16.87,22.64,26.51,14.96,47.32,1014.48,2057.62,3468.95,3077.03,3490.00,599.94,607.19,55.91,0000 0000 0000 0000 000000
2016-06-17 05:04:50,0.02,0.34,0.00,16.88,22.63,26.45,14.92,47.13,1014.40,2057.72,3468.89,3077.01,3490.00,600.22,607.45,55.96,0000 0000 0000 0000 000000
2016-06-17 05:09:51,0.00,0.34,0.00,16.81,22.62,26.48,14.89,47.20,1014.58,2057.88,3468.76,3077.00,3490.00,599.55,607.13,56.01,0000 0000 0000 0000 000000
2016-06-17 05:14:53,0.01,0.34,0.00,16.84,22.62,26.50,14.97,47.23,1014.59,2057.94,3468.17,3077.00,3489.99,600.32,607.80,56.06,0000 0000 0000 0000 000000
2016-06-17 05:19:54,-0.01,0.34,0.00,16.83,22.62,26.51,14.91,47.12,1014.41,2057.93,3468.03,3077.00,3489.98,599.84,607.22,56.11,0000 0000 0000 0000 000000
2016-06-17 05:24:55,0.01,0.34,0.00,16.81,22.61,26.47,14.85,47.03,1014.31,2057.97,3468.01,3077.00,3489.97,599.84,607.24,56.16,0000 0000 0000 0000 000000
2016-06-17 05:29:56,-0.00,0.34,0.00,16.85,22.60,26.42,14.94,47.27,1014.42,2057.97,3468.00,3076.98,3489.80,599.98,607.34,56.21,0000 0000 0000 0000 000000
2016-06-17 05:34:58,0.00,0.34,0.00,16.81,22.59,26.46,14.90,47.22,1014.51,2057.96,3467.96,3076.95,3489.45,599.58,607.14,56.26,0000 0000 0000 0000 000000
2016-06-17 05:39:59,0.01,0.34,0.00,16.74,22.59,26.46,14.96,47.08,1014.59,2057.98,3467.62,3076.88,3489.07,599.81,607.46,56.31,0000 0000 0000 0000 000000
2016-06-17 05:45:00,0.01,0.34,0.00,16.76,22.59,26.37,15.05,47.21,1014.64,2057.98,3467.28,3076.82,3489.05,600.52,608.21,56.36,0000 0000 0000 0000 000000
2016-06-17 05:50:01,0.00,0.34,0.00,16.79,22.59,26.46,14.94,47.27,1014.65,2057.98,3467.13,3076.73,3489.02,600.14,607.77,56.41,0000 0000 0000 0000 000000
2016-06-17 05:55:03,0.01,0.35,0.00,16.78,22.57,26.43,14.93,47.30,1014.64,2057.98,3467.02,3076.23,3489.01,600.12,607.69,56.47,0000 0000 0000 0000 000000
2016-06-17 06:00:04,0.00,0.35,0.00,16.77,22.57,26.44,14.97,47.34,1014.56,2057.99,3467.00,3076.08,3489.00,600.32,607.83,56.52,0000 0000 0000 0000 000000
2016-06-17 06:05:06,0.00,0.35,0.00,16.80,22.57,26.44,14.83,46.97,1014.60,2057.99,3467.00,3076.04,3489.00,599.58,607.23,56.57,0000 0000 0000 0000 000000
2016-06-17 06:10:07,0.00,0.35,0.00,16.84,22.55,26.44,14.94,47.12,1014.65,2057.99,3466.99,3076.01,3489.00,600.06,607.58,56.62,0000 0000 0000 0000 000000
2016-06-17 06:15:08,0.00,0.35,0.00,16.83,22.54,26.42,14.88,47.11,1014.66,2057.99,3466.89,3076.01,3488.98,599.69,607.33,56.67,0000 0000 0000 0000 000000
2016-06-17 06:20:09,0.01,0.35,0.00,16.81,22.54,26.40,14.96,47.16,1014.66,2057.99,3466.46,3076.00,3488.94,599.71,607.25,56.72,0000 0000 0000 0000 000000
2016-06-17 06:25:10,0.00,0.35,0.00,16.84,22.54,26.39,14.97,47.19,1014.66,2057.99,3466.19,3076.00,3488.92,600.51,607.97,56.77,0000 0000 0000 0000 000000
2016-06-17 06:30:11,0.00,0.35,0.00,16.82,22.52,26.42,14.87,47.02,1014.66,2057.99,3466.05,3076.00,3488.92,599.88,607.44,56.82,0000 0000 0000 0000 000000
2016-06-17 06:35:12,0.00,0.35,0.00,16.84,22.52,26.43,14.89,47.17,1014.66,2057.99,3466.02,3075.99,3488.79,599.96,607.63,56.87,0000 0000 0000 0000 000000
2016-06-17 06:40:13,0.01,0.35,0.00,16.80,22.52,26.25,14.97,47.27,1014.66,2057.99,3466.00,3075.99,3488.51,599.88,607.56,56.92,0000 0000 0000 0000 000000
2016-06-17 06:45:15,0.00,0.35,0.00,16.81,22.51,26.39,14.87,47.22,1014.66,2057.99,3465.99,3075.98,3488.19,599.77,607.42,56.97,0000 0000 0000 0000 000000
2016-06-17 06:50:16,0.00,0.35,0.00,16.78,22.49,26.35,14.89,47.17,1014.66,2058.00,3465.98,3075.98,3488.05,599.91,607.55,57.02,0000 0000 0000 0000 000000
2016-06-17 06:55:17,0.00,0.35,0.00,16.78,22.49,26.39,15.06,47.34,1014.66,2058.00,3465.96,3075.98,3488.06,600.55,608.00,57.07,0000 0000 0000 0000 000000
2016-06-17 07:00:19,0.01,0.35,0.00,16.79,22.48,26.39,14.88,47.13,1014.66,2058.01,3465.54,3075.91,3488.01,599.59,607.19,57.12,0000 0000 0000 0000 000000
2016-06-17 07:05:20,0.01,0.35,0.00,16.81,22.47,26.29,14.97,47.04,1014.68,2058.01,3465.18,3075.71,3488.00,600.50,608.22,57.17,0000 0000 0000 0000 000000
2016-06-17 07:10:21,0.01,0.35,0.00,16.77,22.46,26.27,14.87,46.97,1014.69,2058.00,3465.02,3075.43,3488.00,600.41,608.13,57.22,0000 0000 0000 0000 000000
2016-06-17 07:15:23,0.00,0.35,0.00,16.78,22.45,26.33,14.90,47.07,1014.69,2058.02,3464.98,3075.29,3487.99,599.73,607.48,57.27,0000 0000 0000 0000 000000
2016-06-17 07:20:24,0.01,0.35,0.00,16.73,22.44,26.27,14.88,46.97,1014.75,2058.04,3464.74,3075.02,3487.97,600.05,607.79,57.32,0000 0000 0000 0000 000000
2016-06-17 07:25:25,0.01,0.35,0.00,16.74,22.43,26.29,14.81,46.93,1014.91,2058.07,3464.12,3075.01,3487.88,599.45,607.40,57.37,0000 0000 0000 0000 000000
2016-06-17 07:30:27,0.01,0.35,0.00,16.81,22.42,26.27,15.01,47.11,1015.10,2058.05,3464.00,3075.00,3487.49,600.12,607.91,57.42,0000 0000 0000 0000 000000
2016-06-17 07:35:28,0.02,0.35,0.00,16.74,22.42,26.28,14.92,47.11,1015.15,2058.14,3463.97,3075.00,3487.11,600.18,608.27,57.48,0000 0000 0000 0000 000000
2016-06-17 07:40:29,0.00,0.35,0.00,16.67,22.41,26.20,14.93,46.96,1015.15,2058.22,3463.94,3074.99,3487.08,600.03,608.11,57.53,0000 0000 0000 0000 000000
2016-06-17 07:45:30,0.01,0.35,0.00,16.74,22.40,26.25,14.99,47.23,1015.15,2058.33,3463.77,3074.99,3487.09,599.95,608.00,57.58,0000 0000 0000 0000 000000
2016-06-17 07:50:32,0.04,0.35,0.00,16.74,22.39,26.24,15.00,47.15,1015.15,2058.49,3463.24,3074.99,3487.03,600.38,608.41,57.63,0000 0000 0000 0000 000000
2016-06-17 07:55:33,0.03,0.36,0.00,16.74,22.39,26.26,14.91,47.25,1015.15,2058.85,3463.07,3074.98,3487.03,600.01,608.06,57.68,0000 0000 0000 0000 000000
2016-06-17 08:00:34,-0.00,0.36,0.00,16.69,22.37,26.19,14.99,47.15,1015.16,2058.84,3463.00,3074.98,3487.00,600.04,608.18,57.73,0000 0000 0000 0000 000000
2016-06-17 08:05:35,0.01,0.36,0.00,16.59,22.37,26.22,15.07,47.32,1015.29,2058.92,3463.00,3074.98,3487.01,600.34,608.78,57.78,0000 0000 0000 0000 000000
2016-06-17 08:10:36,0.01,0.36,0.00,16.59,22.36,26.28,15.02,47.13,1015.54,2058.97,3463.00,3074.98,3487.00,600.03,608.68,57.83,0000 0000 0000 0000 000000
2016-06-17 08:15:38,-0.00,0.36,0.00,16.64,22.34,26.19,14.95,47.27,1015.63,2058.95,3463.00,3074.97,3487.00,600.07,608.44,57.88,0000 0000 0000 0000 000000
2016-06-17 08:20:39,0.00,0.36,0.00,16.59,22.34,26.18,14.97,47.13,1015.64,2058.98,3462.97,3074.92,3487.00,599.86,608.42,57.93,0000 0000 0000 0000 000000
2016-06-17 08:25:41,-0.00,0.36,0.00,16.61,22.33,26.19,15.00,47.33,1015.64,2058.98,3462.94,3074.85,3487.00,600.33,608.92,57.98,0000 0000 0000 0000 000000
2016-06-17 08:30:42,0.00,0.36,0.00,16.58,22.32,26.24,14.90,46.98,1015.64,2058.99,3462.93,3074.94,3487.00,599.89,608.62,58.03,0000 0000 0000 0000 000000
2016-06-17 08:35:43,0.02,0.36,0.00,16.55,22.32,26.22,14.95,47.14,1015.64,2058.98,3462.19,3074.55,3486.98,599.95,608.65,58.08,0000 0000 0000 0000 000000
2016-06-17 08:40:45,0.00,0.36,0.00,16.56,22.31,26.21,14.91,47.17,1015.64,2058.99,3462.03,3074.42,3486.98,599.77,608.37,58.13,0000 0000 0000 0000 000000
2016-06-17 08:45:46,0.00,0.36,0.00,16.57,22.30,26.20,14.92,47.15,1015.64,2058.99,3462.01,3074.40,3486.95,600.22,608.91,58.18,0000 0000 0000 0000 000000
2016-06-17 08:50:47,-0.00,0.36,0.00,16.52,22.29,26.20,14.88,46.99,1015.64,2058.99,3462.00,3074.27,3486.96,599.49,608.25,58.23,0000 0000 0000 0000 000000
2016-06-17 08:55:48,0.00,0.36,0.00,16.50,22.29,26.16,15.04,47.25,1015.69,2058.99,3462.00,3074.12,3486.93,600.22,609.13,58.28,0000 0000 0000 0000 000000
2016-06-17 09:00:50,-0.00,0.36,0.00,16.51,22.27,26.16,14.94,47.17,1015.80,2058.99,3462.00,3074.09,3486.88,600.28,609.28,58.34,0000 0000 0000 0000 000000
2016-06-17 09:05:51,0.00,0.36,0.00,16.52,22.27,26.18,14.94,47.09,1015.77,2058.99,3461.98,3074.05,3486.48,599.93,608.74,58.39,0000 0000 0000 0000 000000
2016-06-17 09:10:53,-0.00,0.36,0.00,16.51,22.27,26.11,14.93,47.05,1015.97,2058.99,3461.97,3074.03,3486.50,600.02,608.93,58.44,0000 0000 0000 0000 000000
2016-06-17 09:15:54,0.01,0.36,0.00,16.53,22.25,26.16,14.90,47.08,1016.12,2058.99,3461.60,3074.01,3486.15,599.90,608.83,58.49,0000 0000 0000 0000 000000
2016-06-17 09:20:55,0.00,0.36,0.00,16.52,22.24,26.17,14.99,47.17,1016.13,2058.99,3461.17,3074.00,3486.04,600.44,609.47,58.54,0000 0000 0000 0000 000000
2016-06-17 09:25:56,0.00,0.36,0.00,16.51,22.24,26.06,15.05,47.27,1016.15,2058.99,3461.01,3074.00,3486.02,600.32,609.45,58.59,0000 0000 0000 0000 000000
2016-06-17 09:30:57,0.00,0.36,0.00,16.48,22.24,26.07,14.88,47.09,1016.15,2059.00,3460.98,3074.00,3485.99,599.76,608.95,58.64,0000 0000 0000 0000 000000
2016-06-17 09:35:58,0.00,0.36,0.00,16.50,22.22,26.12,15.01,47.19,1016.17,2059.00,3460.97,3074.00,3485.99,600.26,609.16,58.69,0000 0000 0000 0000 000000
2016-06-17 09:41:00,0.00,0.36,0.00,16.48,22.22,26.08,14.93,47.02,1016.17,2059.00,3460.95,3073.98,3485.99,599.99,609.11,58.74,0000 0000 0000 0000 000000
2016-06-17 09:46:01,0.00,0.36,0.00,16.50,22.22,26.02,14.94,47.16,1016.16,2059.00,3460.84,3073.97,3485.99,600.00,609.09,58.79,0000 0000 0000 0000 000000
2016-06-17 09:51:02,0.01,0.36,0.00,16.54,22.20,25.96,14.89,47.04,1016.14,2059.00,3460.32,3073.93,3485.97,599.64,608.70,58.84,0000 0000 0000 0000 000000
2016-06-17 09:56:03,0.00,0.36,0.00,16.52,22.19,26.04,14.95,47.03,1016.13,2059.00,3460.11,3073.93,3485.96,599.82,609.03,58.89,0000 0000 0000 0000 000000
2016-06-17 10:01:05,0.00,0.36,0.00,16.51,22.19,25.93,14.93,47.10,1016.25,2059.01,3460.06,3073.94,3485.97,599.77,609.05,58.94,0000 0000 0000 0000 000000
2016-06-17 10:06:06,0.00,0.36,0.00,16.48,22.19,25.98,14.93,47.23,1016.55,2059.01,3460.03,3073.78,3485.96,599.67,609.08,58.99,0000 0000 0000 0000 000000
2016-06-17 10:11:08,0.00,0.36,0.00,16.44,22.18,26.04,15.01,47.17,1016.62,2059.03,3460.02,3073.90,3485.97,600.34,609.79,59.04,0000 0000 0000 0000 000000
2016-06-17 10:16:09,0.00,0.36,0.00,16.45,22.17,26.00,14.89,47.02,1016.62,2059.04,3460.01,3073.78,3485.91,599.57,609.16,59.09,0000 0000 0000 0000 000000
2016-06-17 10:21:10,0.00,0.36,0.00,16.49,22.17,25.91,14.92,47.03,1016.62,2059.05,3460.00,3073.66,3485.88,599.94,609.20,59.14,0000 0000 0000 0000 000000
2016-06-17 10:26:11,0.01,0.36,0.00,16.50,22.17,25.90,14.90,47.08,1016.62,2059.04,3460.00,3073.30,3485.58,600.01,609.49,59.19,0000 0000 0000 0000 000000
2016-06-17 10:31:13,0.00,0.36,0.00,16.52,22.16,26.00,14.86,47.04,1016.63,2059.02,3460.00,3073.17,3485.37,599.52,608.92,59.24,0000 0000 0000 0000 000000
2016-06-17 10:36:14,0.01,0.36,0.00,16.48,22.15,25.96,14.98,47.16,1016.63,2059.04,3459.99,3073.18,3485.34,599.86,609.28,59.29,0000 0000 0000 0000 000000
2016-06-17 10:41:15,-0.01,0.36,0.00,16.44,22.14,25.89,14.96,47.17,1016.63,2059.08,3459.99,3073.36,3485.57,599.57,609.07,59.34,0000 0000 0000 0000 000000
2016-06-17 10:46:16,0.01,0.36,0.00,16.46,22.14,25.98,15.04,47.16,1016.64,2059.08,3459.96,3073.10,3485.23,600.13,609.51,59.40,0000 0000 0000 0000 000000
2016-06-17 10:51:18,0.00,0.36,0.00,16.43,22.14,25.99,15.01,47.31,1016.67,2059.16,3459.98,3073.16,3485.33,599.97,609.56,59.45,0000 0000 0000 0000 000000
2016-06-17 10:56:19,0.02,0.36,0.00,16.39,22.13,26.03,14.97,47.31,1016.70,2059.36,3459.97,3073.19,3485.44,599.83,609.61,59.50,0000 0000 0000 0000 000000
2016-06-17 11:01:20,0.01,0.36,0.00,16.40,22.12,26.03,14.98,47.14,1016.75,2059.44,3459.94,3073.14,3485.29,599.80,609.61,59.55,0000 0000 0000 0000 000000
2016-06-17 11:06:22,0.01,0.37,0.00,16.48,22.12,25.96,15.05,47.09,1016.79,2059.66,3459.97,3073.24,3485.41,600.31,609.87,59.60,0000 0000 0000 0000 000000
2016-06-17 11:11:23,-0.02,0.37,0.00,16.46,22.12,25.98,15.03,47.12,1016.86,2059.57,3459.96,3073.19,3485.25,600.13,609.75,59.65,0000 0000 0000 0000 000000
2016-06-17 11:16:24,0.02,0.37,0.00,16.41,22.12,25.98,14.96,47.07,1016.87,2059.77,3459.95,3073.19,3485.39,599.93,609.68,59.70,0000 0000 0000 0000 000000
2016-06-17 11:21:26,0.01,0.37,0.00,16.41,22.12,25.96,14.93,47.18,1016.69,2059.87,3459.94,3073.22,3485.44,599.74,609.35,59.75,0000 0000 0000 0000 000000
2016-06-17 11:26:27,0.00,0.37,0.00,16.39,22.11,25.99,14.97,47.13,1016.71,2059.88,3459.86,3073.14,3485.27,600.02,609.71,59.80,0000 0000 0000 0000 000000
2016-06-17 11:31:28,-0.01,0.37,0.00,16.41,22.10,25.94,14.91,47.18,1016.85,2059.97,3459.92,3073.41,3485.57,599.20,608.91,59.85,0000 0000 0000 0000 000000
2016-06-17 11:36:29,0.00,0.37,0.00,16.42,22.09,25.97,15.08,47.36,1016.94,2059.97,3459.94,3073.51,3485.72,600.17,610.03,59.90,0000 0000 0000 0000 000000
2016-06-17 11:41:30,-0.00,0.37,0.00,16.42,22.09,25.94,14.99,47.27,1017.05,2059.97,3459.96,3073.56,3485.81,600.00,609.78,59.95,0000 0000 0000 0000 000000
2016-06-17 11:46:32,0.01,0.37,0.00,16.42,22.09,25.96,14.98,47.08,1017.10,2059.96,3459.88,3073.33,3485.48,599.94,609.81,60.00,0000 0000 0000 0000 000000
2016-06-17 11:51:33,0.01,0.37,0.00,16.37,22.07,25.92,15.03,47.17,1017.10,2059.96,3459.49,3073.24,3485.28,599.97,610.03,60.05,0000 0000 0000 0000 000000
2016-06-17 11:56:34,0.00,0.37,0.00,16.37,22.07,25.90,15.03,47.30,1017.10,2059.97,3459.42,3073.17,3485.33,600.44,610.38,60.10,0000 0000 0000 0000 000000
2016-06-17 12:01:36,-0.03,0.12,0.00,16.36,22.09,25.82,13.00,40.84,1017.11,2060.00,3577.46,3149.60,3579.17,530.26,539.10,0.03,0000 0000 0000 0000 000002
2016-06-17 12:06:37,-0.03,0.00,0.00,16.39,22.07,25.90,14.88,45.95,1017.11,2060.02,3624.71,3181.93,3619.23,600.06,610.01,0.04,0000 0000 0000 0000 000000
2016-06-17 12:11:38,-0.03,0.00,0.00,16.36,22.06,25.90,15.00,46.03,1017.12,2060.02,3623.99,3181.46,3619.00,600.26,610.27,0.09,0000 0000 0000 0000 000000
2016-06-17 12:16:39,-0.02,0.00,0.00,16.33,22.05,25.95,14.93,46.02,1017.17,2060.04,3623.34,3181.12,3618.97,599.84,609.99,0.14,0000 0000 0000 0000 000000
2016-06-17 12:21:40,-0.00,0.00,0.00,16.38,22.04,25.91,14.97,45.96,1017.29,2060.06,3623.02,3181.05,3618.85,599.83,610.03,0.19,0000 0000 0000 0000 000000
2016-06-17 12:26:42,0.00,0.00,0.00,16.35,22.03,25.84,14.96,46.01,1017.39,2060.06,3623.00,3181.01,3618.26,599.87,610.07,0.25,0000 0000 0000 0000 000000
2016-06-17 12:31:43,0.00,0.00,0.00,16.32,22.02,25.76,15.01,45.91,1017.34,2060.09,3622.94,3181.02,3618.05,600.02,610.24,0.30,0000 0000 0000 0000 000000
2016-06-17 12:36:44,0.00,0.00,0.00,16.31,22.02,25.82,14.98,45.90,1017.41,2060.06,3622.41,3181.00,3618.01,599.90,610.38,0.35,0000 0000 0000 0000 000000
2016-06-17 12:41:46,0.02,0.00,0.00,16.36,22.02,25.92,14.99,45.97,1017.45,2060.16,3622.10,3181.01,3618.00,599.95,610.16,0.40,0000 0000 0000 0000 000000
2016-06-17 12:46:48,0.01,0.00,0.00,16.32,22.00,25.88,14.99,46.03,1017.35,2060.25,3622.05,3181.00,3618.00,600.28,610.40,0.45,0000 0000 0000 0000 000000
2016-06-17 12:51:49,0.00,0.00,0.00,16.32,21.99,25.89,15.03,46.22,1017.45,2060.33,3622.02,3181.00,3618.00,600.17,610.29,0.50,0000 0000 0000 0000 000000
2016-06-17 12:56:50,0.02,0.00,0.00,16.36,21.99,25.89,14.94,46.17,1017.58,2060.48,3622.00,3181.01,3618.00,600.29,610.52,0.55,0000 0000 0000 0000 000000